STARLINK-1269, 45197

Orbit data source: Space-Track

STARLINK-1269, 45197 is a payload satellite owned by SpaceX/Seattle (US) in LEO that was launched on Mon, 17 Feb 2020 UTC via an FALCON 9 launch vehicle from the Air Force Eastern Test Range (AFETR). Payload-class satellites include a variety of spacecraft equipped with specific instruments for various scientific and technological missions. These include communications satellites like Starlink; space stations such as the ISS; scientific satellites like the Hubble; Earth observation satellites from companies like Planet Labs, Umbra, and HawkEye 360; GPS; miniature CubeSats for education and research; and military/defense satellites.

Loading next visibility...
Identifier
45197, 2020-012V
Orbit
LEO
Country
Flag of USUS
Related business
Manufacturer
SpaceX/Seattle
Mission
Operational Commercial Communications
Bus & Motor
STARLINK, Unknown motor
Mass
260 kg wet, ~248 kg dry
Launch date (UTC)
2020-02-17 (6 years ago)
Launch vehicle
FALCON 9
Launch site
Air Force Eastern Test Range (AFETR)
Object type
Payload
Rocket body
Debris
Shape & HBR
Box + 1 Pan, 10.1 m
Radar Cross Section
13.562 m², Large (>1 m²)

Expand to show TLE details & history
Last TLE update: 8 hours ago

TLE from 8 hours ago
0 STARLINK-1269
1 45197U 20012V   25288.56556630  .00005517  00000-0  38898-3 0  9999
2 45197  53.0551 338.1114 0001487 102.9650 257.1506 15.06401535312935
Epoch: 2025-10-15T13:34Z
TLE epoch observation values (Epoch: 2025-10-15T13:34:24.928Z)
Latitude
0.00006°
Longitude
110.16976°
Altitude
548.315 km
Speed
7.589 km/s
True Right ascension
22h 32m 26s
True Declination
0° 00' 00"
Sunlit
Object was in full shadow at epoch
Visualization orbit readout
Latitude
Unknown
Longitude
Unknown
Altitude
Unknown
Speed
Unknown
Apparent Right ascension
Unknown
Apparent Declination
Unknown
Sunlit
N/A
Visualization observer readout
Local Sidereal Time
16:28:54
Azimuth
Unknown
Elevation
Unknown
Doppler factor
Unknown
Orbital elements
Apogee altitude
548.507 km
Perigee altitude
546.448 km
Semi-major axis
6,925.614 km
Eccentricity
0.00015
Inclination
53.0551°
RAAN
338.1114°
Arg. of periapsis
102.965°
True anomaly
257.13399°
Mean anomaly
257.1506°
Eccentric anomaly
257.14229°
Mean motion
3.76579 °/min
Orbital period
95.6 mins
BSTAR
0.00038898
Loading maneuver chart data...
Computing Atmospheric mass density...
Loading historical data...
Loading historical data...
Loading historical data...
Loading historical data...
Loading historical data...
Loading historical data...
Loading historical data...

Documentation

Showing up to 5 results
|